Regional Weather Roundup
Issued by NWS Northern Indiana

Home | Current Version | Previous Version | Text Only | Print | Product List | Glossary On
Versions: 1 2 3 4 5 6 7 8 9 10 11 12 13 14 15 16 17 18 19 20 21 22 23 24 25 26 27 28 29 30 31 32 33 34 35 36 37 38 39 40 41 42 43 44 45 46 47 48 49 50
000
ASUS43 KIWX 280510
RWRIWX

KIWX WEATHER ROUNDUP
NATIONAL WEATHER SERVICE NORTHERN INDIANA
100 AM EDT FRI AUG 28 2015

NOTE: "FAIR" INDICATES FEW OR NO CLOUDS BELOW 12,000 FEET WITH NO
SIGNIFICANT WEATHER AND/OR OBSTRUCTIONS TO VISIBILITY.

* THESE STATIONS ARE NOT UNDER NWS QUALITY CONTROL. THEY ALSO MAY NOT
  REPORT WEATHER SUCH AS PRECIPITATION OR FOG.

INZ001>027-280600-
NORTHERN INDIANA

CITY           SKY/WX    TMP DP  RH WIND       PRES   REMARKS
GARY*          CLEAR     62  55  80 E5        30.15S
VALPARAISO     PTCLDY    56  54  93 NE5       30.16S
MICHIGAN CITY* PTCLDY    55  55 100 CALM      30.16S FOG
LAPORTE*       MOCLDY    56  56 100 CALM      30.16S
KNOX*          MOCLDY    54  54 100 CALM      30.15R
SOUTH BEND     PTCLDY    58  54  86 E3        30.16S
GOSHEN         CLEAR     56  53  90 CALM      30.17R
MONTICELLO*    PTCLDY    62  58  86 CALM      30.14R
LOGANSPORT*    PTCLDY    57  52  82 E6        30.15S
ROCHESTER*     PTCLDY    59  59 100 CALM      30.16R
WARSAW*        CLEAR     54  52  94 CALM      30.16R
ANGOLA*        CLEAR     55  54  94 SE5       30.17F
FORT WAYNE     PTCLDY    58  54  86 E6        30.17R
HUNTINGTON*    CLEAR     58  52  81 E3        30.15S
PERU/GRISSOM   PTCLDY    60  56  86 E3        30.14S
MARION*        CLEAR     58  49  74 SE3       30.16S

$$
INZ028>050-280600-
CENTRAL INDIANA

CITY           SKY/WX    TMP DP  RH WIND       PRES   REMARKS
LAFAYETTE      CLEAR     61  57  87 CALM      30.13R
KOKOMO*        MOCLDY    57  52  82 SE5       30.15S
MUNCIE*        CLEAR     55  54  96 E3        30.15S
INDIANAPOLIS   PTCLDY    65  57  75 SE8       30.12R

$$
MIZ043>046-050>051-056>058-064>065-071>073-077>080-280600-
SOUTHWEST LOWER MICHIGAN

CITY           SKY/WX    TMP DP  RH WIND       PRES   REMARKS
BATTLE CREEK   PTCLDY    55  52  89 CALM      30.17S
BENTON HARBOR  PTCLDY    55  53  93 CALM      30.15S FOG
COLDWATER*     CLEAR     56  54  95 SE5       30.17S
HILLSDALE*     CLEAR     55  55 100 E3        30.18S
HOLLAND        PTCLDY    56  54  93 E3        30.16F
GRAND RAPIDS   PTCLDY    57  55  93 CALM      30.17S
KALAMAZOO      PTCLDY    56  52  86 SE5       30.17S
STURGIS*       CLEAR     55  55 100 E3        30.17R
THREE RIVERS*  FAIR      55  53  95 CALM      30.17R

$$
OHZ001>008-015>018-024>025-280600-
NORTHWEST OHIO

CITY           SKY/WX    TMP DP  RH WIND       PRES   REMARKS
WAUSEON*       FAIR      54  54 100 CALM      30.18S
DEFIANCE       CLEAR     58  54  86 E3        30.18R
FINDLAY        CLEAR     60  55  83 E6        30.17S
TOLEDO EXPRESS CLEAR     54  54 100 CALM      30.18R
TOLEDO METCALF CLEAR     57  53  86 SE5       30.18F
LIMA           CLEAR     57  55  93 E6        30.17S

$$
AND FOR LAKE MICHIGAN COASTAL AND OPEN LAKE BUOY OBSERVATIONS

STATION/POSITION TEMP    WIND        PRES    VSBY  WAVE
                 AIR SEA DIR/SP/G                  HT/PER
                 (F)     (DEG/KT/KT) (MB)    (MI)  (FT/S)
CALUMET HARBOR    66     110/  6/  7   N/A
MICHIGAN CITY     62      40/  7/  7   N/A
SAINT JOSEPH      59      CALM  /  2 1021.3F
SOUTH LAKE BUOY   66 69  130/  8/ 10 1020.3F         0
4 MI NW BRIDGMAN  65 71  180/  8/ 10   N/A           1
MICHIGAN CITY     65 71  110/  8/  8   N/A           1

$$
&&


USA.gov is the U.S. government's official web portal to all federal, state and local government web resources and services.